Ft Lauderdale, FL

6:51 AM EDT on May 28, 2017 (GMT -0400)
Fort Lauderdale-Hollywood International

Weather History for KFLL - December, 2012

Change the Weather History Date:

Monday, December 24, 2012

  Actual Average Record
Temperature  
Mean Temperature 69 °F 70 °F  
Max Temperature 77 °F 77 °F 86 °F (1956)
Min Temperature 60 °F 63 °F 30 °F (1989)
Degree Days  
Heating Degree Days 0 1  
Month to date heating degree days 15 19  
Since 1 July heating degree days 17 21  
Cooling Degree Days 4 6  
Month to date cooling degree days 217 176  
Year to date cooling degree days 4572 4689  
Growing Degree Days 18 (Base 50)    
Moisture  
Dew Point 55 °F    
Average Humidity 64    
Maximum Humidity 78    
Minimum Humidity 50    
Precipitation  
Precipitation 0.00 in 0.08 in 2.70 in (1957)
Month to date precipitation 0.71 2.07  
Year to date precipitation 60.83 61.79  
Snow  
Snow 0.00 in - - ()
Month to date snowfall 0.0  
Since 1 July snowfall 0.0  
Snow Depth 0.00 in    
Sea Level Pressure  
Sea Level Pressure 30.07 in    
Wind  
Wind Speed 5 mph (South)    
Max Wind Speed 17 mph    
Max Gust Speed 25 mph    
Visibility 10 miles    
Events      
T = Trace of Precipitation, MM = Missing Value Source: NWS Daily Summary

Daily Weather History Graph

Daily Weather History Graph

Search for Another Location

Airport or City:

Trip Planner

Search our weather history database for the weather conditions in past years. The results will help you decide how hot, cold, wet, or windy it might be!

Date:

Astronomy

Dec. 24, 2012 Rise Set
Actual Time 7:05 AM EST 5:35 PM EST
Civil Twilight 6:39 AM EST 6:01 PM EST
Nautical Twilight 6:11 AM EST 6:29 PM EST
Astronomical Twilight 5:42 AM EST 6:58 PM EST
Moon 2:55 PM EST (12/24) 3:49 AM EST (12/24)
Length of Visible Light 11h 21m
Length of Day
10h 30m
Waxing Gibbous, 88% of the Moon is Illuminated
Dec 24
Waxing Gibbous
Dec 28
Full
Jan 4
Last Quarter
Jan 11
New
Jan 18
First Quarter

Hourly Weather History & Observations

Time (EST) Temp. Dew Point Humidity Pressure Visibility Wind Dir Wind Speed Gust Speed Precip Events Conditions
12:53 AM 61.0 °F 52.0 °F 72% 30.13 in 10.0 mi Calm Calm - N/A   Partly Cloudy
1:53 AM 61.0 °F 52.0 °F 72% 30.13 in 10.0 mi NW 4.6 mph - N/A   Mostly Cloudy
2:53 AM 61.0 °F 53.1 °F 75% 30.09 in 10.0 mi West 3.5 mph - N/A   Partly Cloudy
3:53 AM 62.1 °F 52.0 °F 70% 30.09 in 10.0 mi Calm Calm - N/A   Partly Cloudy
4:53 AM 61.0 °F 52.0 °F 72% 30.09 in 10.0 mi Calm Calm - N/A   Mostly Cloudy
5:53 AM 60.1 °F 52.0 °F 75% 30.09 in 10.0 mi Calm Calm - N/A   Partly Cloudy
6:53 AM 61.0 °F 52.0 °F 72% 30.11 in 10.0 mi NNW 4.6 mph - N/A   Scattered Clouds
7:53 AM 62.1 °F 53.1 °F 72% 30.11 in 10.0 mi NNW 3.5 mph - N/A   Scattered Clouds
8:53 AM 64.9 °F 53.1 °F 65% 30.12 in 10.0 mi Calm Calm - N/A   Scattered Clouds
9:53 AM 70.0 °F 55.0 °F 59% 30.13 in 10.0 mi NW 3.5 mph - N/A   Mostly Cloudy
10:53 AM 75.9 °F 55.9 °F 50% 30.11 in 10.0 mi SSE 13.8 mph 19.6 mph N/A   Mostly Cloudy
11:53 AM 77.0 °F 57.0 °F 50% 30.10 in 10.0 mi SE 15.0 mph 25.3 mph N/A   Mostly Cloudy
12:53 PM 75.9 °F 57.0 °F 52% 30.07 in 10.0 mi SSE 12.7 mph - N/A   Scattered Clouds
1:53 PM 75.0 °F 55.9 °F 51% 30.04 in 10.0 mi SE 11.5 mph - N/A   Scattered Clouds
2:53 PM 73.9 °F 57.0 °F 55% 30.04 in 10.0 mi SSE 11.5 mph - N/A   Scattered Clouds
3:53 PM 73.9 °F 55.9 °F 53% 30.04 in 10.0 mi SSE 10.4 mph - N/A   Scattered Clouds
4:53 PM 73.9 °F 55.9 °F 53% 30.03 in 10.0 mi South 6.9 mph - N/A   Partly Cloudy
5:53 PM 71.1 °F 55.9 °F 59% 30.03 in 10.0 mi South 3.5 mph - N/A   Partly Cloudy
6:53 PM 69.1 °F 57.0 °F 65% 30.03 in 10.0 mi South 4.6 mph - N/A   Partly Cloudy
7:53 PM 69.1 °F 57.0 °F 65% 30.00 in 10.0 mi South 5.8 mph - N/A   Clear
8:53 PM 69.1 °F 57.0 °F 65% 30.03 in 10.0 mi Calm Calm - N/A   Partly Cloudy
9:53 PM 66.9 °F 57.9 °F 73% 30.05 in 10.0 mi Calm Calm - N/A   Scattered Clouds
10:53 PM 64.9 °F 57.9 °F 78% 30.04 in 10.0 mi Calm Calm - N/A   Partly Cloudy
11:53 PM 64.0 °F 59.0 °F 84% 30.03 in 10.0 mi Calm Calm - N/A   Partly Cloudy